TimeCDT,TemperatureF,Dew PointF,Humidity,Sea Level PressureIn,VisibilityMPH,Wind Direction,Wind SpeedMPH,Gust SpeedMPH,PrecipitationIn,Events,Conditions,WindDirDegrees,DateUTC
12:53 AM,66.9,46.9,49,30.04,10.0,North,20.7,29.9,0.00,Rain,Light Rain,10,2013-03-11 05:53:00
1:53 AM,66.0,46.0,48,30.05,10.0,North,19.6,26.5,0.00,,Overcast,10,2013-03-11 06:53:00
2:53 AM,64.9,46.9,52,30.05,10.0,North,17.3,25.3,0.00,,Overcast,10,2013-03-11 07:53:00
3:53 AM,63.0,46.0,54,30.05,10.0,NNE,15.0,24.2,0.00,,Overcast,20,2013-03-11 08:53:00
4:53 AM,62.1,45.0,53,30.05,9.0,North,16.1,-,N/A,,Overcast,10,2013-03-11 09:53:00
5:53 AM,62.1,42.1,48,30.07,10.0,North,17.3,-,N/A,,Overcast,10,2013-03-11 10:53:00
7:53 AM,57.0,43.0,59,30.12,8.0,North,6.9,-,N/A,,Partly Cloudy,350,2013-03-11 12:53:00
8:53 AM,59.0,43.0,55,30.16,8.0,NW,8.1,-,N/A,,Clear,320,2013-03-11 13:53:00
9:53 AM,61.0,39.9,46,30.17,8.0,NW,10.4,-,N/A,,Clear,320,2013-03-11 14:53:00
10:53 AM,66.9,37.0,33,30.17,8.0,North,15.0,-,0.00,Rain,Light Rain,10,2013-03-11 15:53:00
11:53 AM,68.0,36.0,31,30.17,8.0,North,12.7,-,0.00,,Clear,10,2013-03-11 16:53:00
12:53 PM,70.0,34.0,27,30.15,8.0,North,17.3,21.9,N/A,,Clear,350,2013-03-11 17:53:00
1:53 PM,70.0,39.0,32,30.11,8.0,ENE,13.8,20.7,0.00,,Clear,60,2013-03-11 18:53:00
2:53 PM,70.0,39.0,32,30.08,9.0,NE,13.8,24.2,0.00,,Clear,50,2013-03-11 19:53:00
3:53 PM,69.1,39.0,33,30.05,8.0,NE,16.1,-,N/A,,Clear,50,2013-03-11 20:53:00
4:53 PM,69.1,42.1,38,30.04,8.0,East,8.1,-,N/A,,Clear,80,2013-03-11 21:53:00
6:53 PM,64.9,42.1,43,30.04,8.0,East,6.9,-,N/A,,Clear,90,2013-03-11 23:53:00
7:53 PM,61.0,41.0,48,30.05,9.0,East,4.6,-,N/A,,Clear,80,2013-03-12 00:53:00
8:53 PM,57.9,41.0,53,30.07,10.0,ESE,3.5,-,N/A,,Clear,120,2013-03-12 01:53:00
9:53 PM,55.9,41.0,57,30.09,10.0,East,5.8,-,N/A,,Clear,90,2013-03-12 02:53:00
10:53 PM,51.1,39.9,66,30.11,10.0,South,3.5,-,N/A,,Clear,190,2013-03-12 03:53:00
11:53 PM,52.0,41.0,66,30.11,10.0,South,3.5,-,0.00,,Clear,190,2013-03-12 04:53:00